• MPC Preparation (Info)

  • MPEC 2016-N82 : 2016 NR32

    The following Minor Planet Electronic Circular may be linked-to from your own Web pages, but must not otherwise be redistributed electronically.

    A form allowing access to any MPEC is at the bottom of this page.


    Read MPEC 2016-N81 Read MPEC 2016-N83


    M.P.E.C. 2016-N82                                Issued 2016 July 13, 15:34 UT
    
         The Minor Planet Electronic Circulars contain information on unusual
             minor planets and routine data on comets.  They are published
        on behalf of Division F of the International Astronomical Union by the
              Minor Planet Center, Smithsonian Astrophysical Observatory,
                              Cambridge, MA 02138, U.S.A.
    
                 Prepared using the Tamkin Foundation Computer Network
    
                                  MPC@CFA.HARVARD.EDU
                URL https://www.minorplanetcenter.net/    ISSN 1523-6714
    
                                       2016 NR32
    
    Observations:
         K16N32R* C2016 07 11.34680 20 55 34.93 +16 50 03.8          21.2 VqEN082G96
         K16N32R  C2016 07 11.35335 20 55 36.03 +16 50 15.3          21.8 VqEN082G96
         K16N32R  C2016 07 11.35987 20 55 37.24 +16 50 27.8          21.9 VqEN082G96
         K16N32R  C2016 07 11.36642 20 55 38.38 +16 50 39.8          21.4 VqEN082G96
         K16N32R  C2016 07 11.45612 20 55 54.30 +16 53 23.1          21.6 VqEN082G96
         K16N32R  C2016 07 11.46007 20 55 54.98 +16 53 30.4                qEN082G96
         K16N32R  C2016 07 11.46401 20 55 55.70 +16 53 37.4          21.6 VqEN082G96
         K16N32R KC2016 07 12.27664020 58 34.86 +17 18 14.6          21.9 VuEN082H21
         K16N32R KC2016 07 12.28822120 58 36.96 +17 18 35.8          21.9 VuEN082H21
         K16N32R KC2016 07 12.29878720 58 38.88 +17 18 54.8          22.1 VuEN082H21
         K16N32R  C2016 07 12.37165 20 58 52.97 +17 21 11.4          21.8 VqEN082G96
         K16N32R  C2016 07 12.37648 20 58 53.84 +17 21 20.2          21.2 VqEN082G96
         K16N32R  C2016 07 12.38146 20 58 54.70 +17 21 28.5          21.7 VqEN082G96
         K16N32R  C2016 07 12.38643 20 58 55.64 +17 21 38.5          21.6 VqEN082G96
         K16N32R  C2016 07 13.34328 21 02 04.34 +17 50 11.0          22.0 VqEN082G96
         K16N32R  C2016 07 13.35329 21 02 06.20 +17 50 28.0          20.9 VqEN082G96
    
    Observer details:
    G96 Mt. Lemmon Survey.  Observers D. C. Fuls, A. D. Grauer.  Measurers
        E. J. Christensen, D. C. Fuls, A. R. Gibbs, A. D. Grauer, J. A. Johnson,
        R. A. Kowalski, S. M. Larson, G. J. Leonard, R. G. Matheny, R. L. Seaman,
        F. C. Shelly.  1.5-m reflector + 10K CCD.
    H21 Astronomical Research Observatory, Westfield.  Observer R. Holmes.
        Measurers S. Foglia, L. Buzzi, T. Linder, R. Holmes.  0.81-m f/4.0
        astrograph + CCD.
    
    Orbital elements:
    2016 NR32                                                Earth MOID = 0.1540 AU
    Epoch 2016 July 31.0 TT = JDT 2457600.5                 MPC
    M 357.41911              (2000.0)            P               Q
    n   0.36084629     Peri.  125.57338     +0.75559425     +0.65463039
    a   1.9539850      Node   193.58544     -0.62836626     +0.71438604
    e   0.4153312      Incl.    5.65834     -0.18502209     +0.24720766
    P   2.73           H   23.2           G   0.15           U   8
    Residuals in seconds of arc
    160711 G96  0.3+  0.3+    160711 G96  0.1-  0.0     160712 G96  0.2-  0.7-
    160711 G96  0.5-  0.3-    160712 H21  0.2-  0.0     160712 G96  0.5+  0.3+
    160711 G96  0.3+  0.2+    160712 H21  0.1-  0.1+    160713 G96  0.4-  0.6+
    160711 G96  0.0   0.1+    160712 H21  0.1+  0.1-    160713 G96  0.1+  0.3-
    160711 G96  0.1+  0.1-    160712 G96  0.2+  0.1-
    160711 G96  0.3-  0.1+    160712 G96  0.3+  0.1-
    
    Ephemeris:
    2016 NR32                a,e,i = 1.95, 0.42, 6                   q = 1.1424
    Date    TT    R. A. (2000) Decl.     Delta      r     Elong.  Phase     V
    2016 06 13    19 41 19.0 +01 31 45   0.3173  1.2717   138.8    31.7    22.6
    ...
    2016 06 28    20 16 55.6 +09 34 00   0.2509  1.2142   137.8    34.3    22.0
    ...
    2016 07 06    20 39 08.4 +14 00 24   0.2250  1.1893   136.2    36.3    21.8
    ...
    2016 07 12    20 57 40.4 +17 10 07   0.2095  1.1738   134.9    37.9    21.7
    2016 07 13    21 00 55.9 +17 40 09   0.2072  1.1715   134.7    38.1    21.7
    2016 07 14    21 04 14.4 +18 09 36   0.2051  1.1693   134.5    38.4    21.6
    ...
    2016 07 20    21 25 04.2 +20 51 37   0.1937  1.1578   133.4    39.6    21.5
    ...
    2016 07 28    21 54 59.9 +23 35 33   0.1829  1.1473   132.6    40.6    21.4
    ...
    2016 08 12    22 52 18.4 +25 00 13   0.1747  1.1435   135.0    38.8    21.3
    
    A. U. Tomatic                (C) Copyright 2016 MPC           M.P.E.C. 2016-N82
    

    Read MPEC 2016-N81 Read MPEC 2016-N83


    MPEC number:

    Enter an MPEC number in one of the following forms:

    • 1997-B01 (the full form)
    • J97B01 (the packed version of the full form)
    • B01 (the abbreviated form)